James Clark Ross — ZDLP — position and weather

sailwx.info

Track history (hours):
 
Tides and Currents Weather Stations Pressure Air Temp Water Temp Dewpoint Dewpoint Depression Visibility Wind Speed Wind Dir Waves Ship Positions

Oceanographic research ship James Clark Ross (UK)

Detailed information on ship capabilities available from University of Delaware's Ocean Information Center and ARCUS's ALIAS (Arctic Logistics Information and Support) project.

Last reported at 2017-Aug-15 07:01 UTC. Time now 2017-Aug-16 19:37 UTC.
Position N 50°53' W 001°24'.

Length 99 m; beam 18.8 m; draft 6.3 m.

Type: Ship. MMSI: 740339000.

Date/timePositionNaut miles runAvg speedWind from/ knotsBaromVisibWave heightAir tempDewpointWater temp
2017-Aug-15 07:01N 50°53' W 001°24'0 1.7
2017-Aug-15 06:47N 50°53' W 001°24'2 6.0
2017-Aug-15 06:30N 50°52' W 001°22'3 6.6
2017-Aug-15 06:01N 50°50' W 001°18'3 6.2
2017-Aug-15 05:31N 50°48' W 001°15'5 9.6
2017-Aug-15 05:00N 50°46' W 001°08'4 9.0
2017-Aug-15 04:31N 50°43' W 001°02'4 7.5
2017-Aug-15 04:01N 50°40' W 000°58'3 5.7
2017-Aug-15 03:31N 50°38' W 000°56'4 8.5
2017-Aug-15 03:00N 50°37' W 000°50'4 8.5
2017-Aug-15 02:31N 50°36' W 000°43'4 8.4
2017-Aug-15 02:01N 50°35' W 000°37'4 8.5
2017-Aug-15 01:31N 50°34' W 000°30'4 8.3
2017-Aug-15 01:01N 50°33' W 000°24'4 8.4
2017-Aug-15 00:31N 50°32' W 000°17'4 8.4
2017-Aug-15 00:01N 50°32' W 000°11'4206.0
2017-Aug-15 00:00N 50°30' W 000°06'1 2.2 080 / 81013.710.8 18.216.718.1
2017-Aug-14 23:30N 50°31' W 000°05'4 8.0
2017-Aug-14 23:00N 50°32' E 000°01'4 7.9
2017-Aug-14 22:31N 50°33' E 000°07'4 7.7
2017-Aug-14 22:00N 50°34' E 000°13'4 7.9
2017-Aug-14 21:31N 50°35' E 000°19'4 8.1
2017-Aug-14 21:01N 50°36' E 000°25'4 8.3
2017-Aug-14 20:31N 50°37' E 000°31'4 8.2
2017-Aug-14 20:01N 50°39' E 000°37'4 7.8
2017-Aug-14 19:31N 50°41' E 000°42'4 7.1
2017-Aug-14 19:01N 50°43' E 000°46'4 8.4
2017-Aug-14 18:31N 50°46' E 000°52'4 8.8
2017-Aug-14 18:01N 50°48' E 000°57'4 8.8
2017-Aug-14 17:31N 50°51' E 001°03'4 8.6
2017-Aug-14 17:01N 50°54' E 001°08'4 8.9
2017-Aug-14 16:31N 50°57' E 001°13'5 9.0
2017-Aug-14 16:01N 50°60' E 001°19'4 8.2
2017-Aug-14 15:31N 51°02' E 001°24'4 8.1
2017-Aug-14 15:01N 51°05' E 001°29'4 8.8
2017-Aug-14 14:31N 51°08' E 001°34'4 8.9
2017-Aug-14 14:00N 51°10' E 001°40'4 9.0
2017-Aug-14 13:31N 51°13' E 001°45'510.4
2017-Aug-14 13:00N 51°18' E 001°49'5 9.8
2017-Aug-14 12:31N 51°23' E 001°52'4 8.5
2017-Aug-14 12:00N 51°26' E 001°56'5 9.0
2017-Aug-14 11:30N 51°30' E 002°00'5 9.2
2017-Aug-14 11:01N 51°33' E 002°05'5 9.5
2017-Aug-14 10:30N 51°36' E 002°11'5 9.6
2017-Aug-14 10:00N 51°40' E 002°16'5 9.7
2017-Aug-14 09:28N 51°44' E 002°22'5 9.5
2017-Aug-14 08:57N 51°47' E 002°27'4 9.3
2017-Aug-14 08:30N 51°50' E 002°32'5 9.2
2017-Aug-14 07:59N 51°54' E 002°36'4 9.3
2017-Aug-14 07:30N 51°59' E 002°37'510.1
2017-Aug-14 07:00N 52°04' E 002°38'510.0
2017-Aug-14 06:31N 52°09' E 002°39'5 9.9
2017-Aug-14 06:00N 52°14' E 002°40'6 9.8
2017-Aug-14 05:25N 52°19' E 002°40'4 9.9
2017-Aug-14 05:00N 52°23' E 002°40'5 9.7
2017-Aug-14 04:28N 52°29' E 002°41'43 9.7
2017-Aug-14 00:00N 53°12' E 002°42'323.4 180 / 91020.810.8 16.611.318.2
2017-Aug-13 23:53N 53°14' E 002°45'510.2
2017-Aug-13 23:22N 53°19' E 002°47'1110.4
2017-Aug-13 22:19N 53°29' E 002°53'11210.9
2017-Aug-13 12:00N 55°18' E 003°42'474 9.9 250 / 71020.510.8 16.4 8.217.1
2017-Aug-11 12:00N 63°12' E 004°18'25 4.2 200 / 50997.4 5.4 13.012.413.9
2017-Aug-11 06:00N 63°36' E 004°36'27 4.6 220 / 48999.5 2.2 13.611.413.7
2017-Aug-11 00:00N 64°00' E 005°06'12610.5 220 / 371004.3 5.4 13.312.614.4
2017-Aug-10 12:00N 65°54' E 007°12'16914.0 200 / 181006.110.8 12.510.613.8
2017-Aug-10 00:00N 68°24' E 010°30'14913.9 050 / 71013.510.8 11.0 6.313.3
2017-Aug-09 13:12N 69°49' E 016°15'313.7
2017-Aug-09 13:00N 69°48' E 016°23'714.0
2017-Aug-09 12:30N 69°47' E 016°43'713.9
2017-Aug-09 12:00N 69°46' E 017°02'4264.7
2017-Aug-09 12:00N 69°42' E 017°00'816.6 030 / 71020.110.8 9.5 8.511.5
2017-Aug-09 11:30N 69°45' E 017°22'713.8
2017-Aug-09 11:00N 69°44' E 017°42'713.9
2017-Aug-09 10:30N 69°37' E 017°50'713.5
2017-Aug-09 10:00N 69°32' E 018°01'611.9
2017-Aug-09 09:30N 69°31' E 018°18'714.2
2017-Aug-09 09:00N 69°33' E 018°38'611.9
2017-Aug-09 08:30N 69°36' E 018°52'510.9
2017-Aug-09 08:00N 69°42' E 018°54'3 6.6
2017-Aug-09 07:30N 69°43' E 019°03'2 5.0
2017-Aug-09 07:00N 69°41' E 018°59'0 0.0
2017-Aug-09 06:30N 69°41' E 018°59'0 0.0
2017-Aug-09 06:00N 69°41' E 018°59'0 0.0
2017-Aug-09 05:30N 69°41' E 018°59'0 0.0
2017-Aug-09 05:00N 69°41' E 018°59'0 0.0
2017-Aug-09 04:30N 69°41' E 018°59'0 0.0
2017-Aug-09 04:00N 69°41' E 018°59'0 0.0
2017-Aug-09 03:30N 69°41' E 018°59'0 0.0
2017-Aug-09 03:00N 69°41' E 018°59'0 0.0
2017-Aug-09 02:30N 69°41' E 018°59'0 0.0
2017-Aug-09 02:00N 69°41' E 018°59'0 0.0
2017-Aug-09 01:30N 69°41' E 018°59'0 0.0
2017-Aug-09 01:00N 69°41' E 018°59'0 0.0
2017-Aug-09 00:30N 69°41' E 018°59'0 0.0
2017-Aug-09 00:00N 69°41' E 018°59'0 0.0
2017-Aug-08 23:30N 69°41' E 018°59'0 0.0
2017-Aug-08 23:00N 69°41' E 018°59'0 0.0
2017-Aug-08 22:30N 69°41' E 018°59'0 0.0
2017-Aug-08 22:00N 69°41' E 018°59'0 0.0
2017-Aug-08 21:30N 69°41' E 018°59'0 0.0
2017-Aug-08 21:00N 69°41' E 018°59'0 0.0
2017-Aug-08 20:30N 69°41' E 018°59'0 0.0
2017-Aug-08 20:00N 69°41' E 018°59'0 0.0
2017-Aug-08 19:30N 69°41' E 018°59'0 0.0
2017-Aug-08 19:00N 69°41' E 018°59'0 0.0
2017-Aug-08 18:30N 69°41' E 018°59'0 0.0
2017-Aug-08 18:00N 69°41' E 018°59'0 0.0
2017-Aug-08 17:30N 69°41' E 018°59'0 0.0
2017-Aug-08 17:00N 69°41' E 018°59'0 0.0
2017-Aug-08 16:30N 69°41' E 018°59'0 0.0
2017-Aug-08 16:00N 69°41' E 018°59'0 0.0
2017-Aug-08 15:30N 69°41' E 018°59'0 0.0
2017-Aug-08 15:00N 69°41' E 018°59'0 0.0
2017-Aug-08 14:30N 69°41' E 018°59'0 0.0
2017-Aug-08 14:00N 69°41' E 018°59'0 0.0
2017-Aug-08 13:30N 69°41' E 018°59'0 0.0
2017-Aug-08 13:00N 69°41' E 018°59'0 0.0
2017-Aug-08 12:30N 69°41' E 018°59'0 0.0
2017-Aug-08 12:00N 69°41' E 018°59'0 0.0
2017-Aug-08 11:30N 69°41' E 018°59'0 0.0
2017-Aug-08 11:00N 69°41' E 018°59'0 0.0
2017-Aug-08 10:30N 69°41' E 018°59'0 0.0
2017-Aug-08 10:00N 69°41' E 018°59'0 0.0
2017-Aug-08 09:30N 69°41' E 018°59'0 0.0
2017-Aug-08 09:00N 69°41' E 018°59'0 0.0
2017-Aug-08 08:30N 69°41' E 018°59'0 0.3
2017-Aug-08 08:01N 69°41' E 018°60'3 5.7
2017-Aug-08 07:30N 69°43' E 019°03'4 8.3
2017-Aug-08 07:00N 69°47' E 019°11'5 9.9
2017-Aug-08 06:30N 69°48' E 019°24'5 9.6
2017-Aug-08 06:00N 69°50' E 019°37'4 9.2
2017-Aug-08 05:31N 69°52' E 019°48'4 7.9
2017-Aug-08 05:00N 69°56' E 019°55'4 8.3
2017-Aug-08 04:30N 69°59' E 020°02'4 8.4
2017-Aug-08 04:00N 70°03' E 020°08'4 8.8
2017-Aug-08 03:30N 70°07' E 020°14'4 8.7
2017-Aug-08 03:01N 70°11' E 020°18'4 8.7
2017-Aug-08 02:30N 70°15' E 020°22'4 8.6
2017-Aug-08 02:01N 70°19' E 020°27'4 8.7
2017-Aug-08 01:30N 70°23' E 020°31'4 8.7
2017-Aug-08 01:00N 70°27' E 020°36'4 8.6
2017-Aug-08 00:30N 70°31' E 020°40'4 8.6
2017-Aug-08 00:00N 70°35' E 020°45'4 8.5
2017-Aug-07 23:30N 70°39' E 020°49'23 1.4
2017-Aug-07 07:00N 70°54' E 019°54'103 5.7 140 / 161008.410.8 11.2 9.811.0
2017-Aug-06 13:00N 72°36' E 019°12'0 0.0 090 / 221012.1 5.4 9.3 5.6 9.4
2017-Aug-05 13:00N 72°36' E 019°12'   070 / 201008.9 5.4 9.2 8.4 9.1
Track history (hours):
 
Tides and Currents Weather Stations Pressure Air Temp Water Temp Dewpoint Dewpoint Depression Visibility Wind Speed Wind Dir Waves Ship Positions

Oceanographic research ship James Clark Ross (UK)

Detailed information on ship capabilities available from University of Delaware's Ocean Information Center and ARCUS's ALIAS (Arctic Logistics Information and Support) project.

Last reported at 2017-Aug-15 07:01 UTC. Time now 2017-Aug-16 19:37 UTC.
Position N 50°53' W 001°24'.

Length 99 m; beam 18.8 m; draft 6.3 m.

Type: Ship. MMSI: 740339000.

Date/timePositionNaut miles runAvg speedWind from/ knotsBaromVisibWave heightAir tempDewpointWater temp
2017-Aug-15 07:01N 50°53' W 001°24'0 1.7
2017-Aug-15 06:47N 50°53' W 001°24'2 6.0
2017-Aug-15 06:30N 50°52' W 001°22'3 6.6
2017-Aug-15 06:01N 50°50' W 001°18'3 6.2
2017-Aug-15 05:31N 50°48' W 001°15'5 9.6
2017-Aug-15 05:00N 50°46' W 001°08'4 9.0
2017-Aug-15 04:31N 50°43' W 001°02'4 7.5
2017-Aug-15 04:01N 50°40' W 000°58'3 5.7
2017-Aug-15 03:31N 50°38' W 000°56'4 8.5
2017-Aug-15 03:00N 50°37' W 000°50'4 8.5
2017-Aug-15 02:31N 50°36' W 000°43'4 8.4
2017-Aug-15 02:01N 50°35' W 000°37'4 8.5
2017-Aug-15 01:31N 50°34' W 000°30'4 8.3
2017-Aug-15 01:01N 50°33' W 000°24'4 8.4
2017-Aug-15 00:31N 50°32' W 000°17'4 8.4
2017-Aug-15 00:01N 50°32' W 000°11'4206.0
2017-Aug-15 00:00N 50°30' W 000°06'1 2.2 080 / 81013.710.8 18.216.718.1
2017-Aug-14 23:30N 50°31' W 000°05'4 8.0
2017-Aug-14 23:00N 50°32' E 000°01'4 7.9
2017-Aug-14 22:31N 50°33' E 000°07'4 7.7
2017-Aug-14 22:00N 50°34' E 000°13'4 7.9
2017-Aug-14 21:31N 50°35' E 000°19'4 8.1
2017-Aug-14 21:01N 50°36' E 000°25'4 8.3
2017-Aug-14 20:31N 50°37' E 000°31'4 8.2
2017-Aug-14 20:01N 50°39' E 000°37'4 7.8
2017-Aug-14 19:31N 50°41' E 000°42'4 7.1
2017-Aug-14 19:01N 50°43' E 000°46'4 8.4
2017-Aug-14 18:31N 50°46' E 000°52'4 8.8
2017-Aug-14 18:01N 50°48' E 000°57'4 8.8
2017-Aug-14 17:31N 50°51' E 001°03'4 8.6
2017-Aug-14 17:01N 50°54' E 001°08'4 8.9
2017-Aug-14 16:31N 50°57' E 001°13'5 9.0
2017-Aug-14 16:01N 50°60' E 001°19'4 8.2
2017-Aug-14 15:31N 51°02' E 001°24'4 8.1
2017-Aug-14 15:01N 51°05' E 001°29'4 8.8
2017-Aug-14 14:31N 51°08' E 001°34'4 8.9
2017-Aug-14 14:00N 51°10' E 001°40'4 9.0
2017-Aug-14 13:31N 51°13' E 001°45'510.4
2017-Aug-14 13:00N 51°18' E 001°49'5 9.8
2017-Aug-14 12:31N 51°23' E 001°52'4 8.5
2017-Aug-14 12:00N 51°26' E 001°56'5 9.0
2017-Aug-14 11:30N 51°30' E 002°00'5 9.2
2017-Aug-14 11:01N 51°33' E 002°05'5 9.5
2017-Aug-14 10:30N 51°36' E 002°11'5 9.6
2017-Aug-14 10:00N 51°40' E 002°16'5 9.7
2017-Aug-14 09:28N 51°44' E 002°22'5 9.5
2017-Aug-14 08:57N 51°47' E 002°27'4 9.3
2017-Aug-14 08:30N 51°50' E 002°32'5 9.2
2017-Aug-14 07:59N 51°54' E 002°36'4 9.3
2017-Aug-14 07:30N 51°59' E 002°37'510.1
2017-Aug-14 07:00N 52°04' E 002°38'510.0
2017-Aug-14 06:31N 52°09' E 002°39'5 9.9
2017-Aug-14 06:00N 52°14' E 002°40'6 9.8
2017-Aug-14 05:25N 52°19' E 002°40'4 9.9
2017-Aug-14 05:00N 52°23' E 002°40'5 9.7
2017-Aug-14 04:28N 52°29' E 002°41'43 9.7
2017-Aug-14 00:00N 53°12' E 002°42'323.4 180 / 91020.810.8 16.611.318.2
2017-Aug-13 23:53N 53°14' E 002°45'510.2
2017-Aug-13 23:22N 53°19' E 002°47'1110.4
2017-Aug-13 22:19N 53°29' E 002°53'11210.9
2017-Aug-13 12:00N 55°18' E 003°42'474 9.9 250 / 71020.510.8 16.4 8.217.1
2017-Aug-11 12:00N 63°12' E 004°18'25 4.2 200 / 50997.4 5.4 13.012.413.9
2017-Aug-11 06:00N 63°36' E 004°36'27 4.6 220 / 48999.5 2.2 13.611.413.7
2017-Aug-11 00:00N 64°00' E 005°06'12610.5 220 / 371004.3 5.4 13.312.614.4
2017-Aug-10 12:00N 65°54' E 007°12'16914.0 200 / 181006.110.8 12.510.613.8
2017-Aug-10 00:00N 68°24' E 010°30'14913.9 050 / 71013.510.8 11.0 6.313.3
2017-Aug-09 13:12N 69°49' E 016°15'313.7
2017-Aug-09 13:00N 69°48' E 016°23'714.0
2017-Aug-09 12:30N 69°47' E 016°43'713.9
2017-Aug-09 12:00N 69°46' E 017°02'4264.7
2017-Aug-09 12:00N 69°42' E 017°00'816.6 030 / 71020.110.8 9.5 8.511.5
2017-Aug-09 11:30N 69°45' E 017°22'713.8
2017-Aug-09 11:00N 69°44' E 017°42'713.9
2017-Aug-09 10:30N 69°37' E 017°50'713.5
2017-Aug-09 10:00N 69°32' E 018°01'611.9
2017-Aug-09 09:30N 69°31' E 018°18'714.2
2017-Aug-09 09:00N 69°33' E 018°38'611.9
2017-Aug-09 08:30N 69°36' E 018°52'510.9
2017-Aug-09 08:00N 69°42' E 018°54'3 6.6
2017-Aug-09 07:30N 69°43' E 019°03'2 5.0
2017-Aug-09 07:00N 69°41' E 018°59'0 0.0
2017-Aug-09 06:30N 69°41' E 018°59'0 0.0
2017-Aug-09 06:00N 69°41' E 018°59'0 0.0
2017-Aug-09 05:30N 69°41' E 018°59'0 0.0
2017-Aug-09 05:00N 69°41' E 018°59'0 0.0
2017-Aug-09 04:30N 69°41' E 018°59'0 0.0
2017-Aug-09 04:00N 69°41' E 018°59'0 0.0
2017-Aug-09 03:30N 69°41' E 018°59'0 0.0
2017-Aug-09 03:00N 69°41' E 018°59'0 0.0
2017-Aug-09 02:30N 69°41' E 018°59'0 0.0
2017-Aug-09 02:00N 69°41' E 018°59'0 0.0
2017-Aug-09 01:30N 69°41' E 018°59'0 0.0
2017-Aug-09 01:00N 69°41' E 018°59'0 0.0
2017-Aug-09 00:30N 69°41' E 018°59'0 0.0
2017-Aug-09 00:00N 69°41' E 018°59'0 0.0
2017-Aug-08 23:30N 69°41' E 018°59'0 0.0
2017-Aug-08 23:00N 69°41' E 018°59'0 0.0
2017-Aug-08 22:30N 69°41' E 018°59'0 0.0
2017-Aug-08 22:00N 69°41' E 018°59'0 0.0
2017-Aug-08 21:30N 69°41' E 018°59'0 0.0
2017-Aug-08 21:00N 69°41' E 018°59'0 0.0
2017-Aug-08 20:30N 69°41' E 018°59'0 0.0
2017-Aug-08 20:00N 69°41' E 018°59'0 0.0
2017-Aug-08 19:30N 69°41' E 018°59'0 0.0
2017-Aug-08 19:00N 69°41' E 018°59'0 0.0
2017-Aug-08 18:30N 69°41' E 018°59'0 0.0
2017-Aug-08 18:00N 69°41' E 018°59'0 0.0
2017-Aug-08 17:30N 69°41' E 018°59'0 0.0
2017-Aug-08 17:00N 69°41' E 018°59'0 0.0
2017-Aug-08 16:30N 69°41' E 018°59'0 0.0
2017-Aug-08 16:00N 69°41' E 018°59'0 0.0
2017-Aug-08 15:30N 69°41' E 018°59'0 0.0
2017-Aug-08 15:00N 69°41' E 018°59'0 0.0
2017-Aug-08 14:30N 69°41' E 018°59'0 0.0
2017-Aug-08 14:00N 69°41' E 018°59'0 0.0
2017-Aug-08 13:30N 69°41' E 018°59'0 0.0
2017-Aug-08 13:00N 69°41' E 018°59'0 0.0
2017-Aug-08 12:30N 69°41' E 018°59'0 0.0
2017-Aug-08 12:00N 69°41' E 018°59'0 0.0
2017-Aug-08 11:30N 69°41' E 018°59'0 0.0
2017-Aug-08 11:00N 69°41' E 018°59'0 0.0
2017-Aug-08 10:30N 69°41' E 018°59'0 0.0
2017-Aug-08 10:00N 69°41' E 018°59'0 0.0
2017-Aug-08 09:30N 69°41' E 018°59'0 0.0
2017-Aug-08 09:00N 69°41' E 018°59'0 0.0
2017-Aug-08 08:30N 69°41' E 018°59'0 0.3
2017-Aug-08 08:01N 69°41' E 018°60'3 5.7
2017-Aug-08 07:30N 69°43' E 019°03'4 8.3
2017-Aug-08 07:00N 69°47' E 019°11'5 9.9
2017-Aug-08 06:30N 69°48' E 019°24'5 9.6
2017-Aug-08 06:00N 69°50' E 019°37'4 9.2
2017-Aug-08 05:31N 69°52' E 019°48'4 7.9
2017-Aug-08 05:00N 69°56' E 019°55'4 8.3
2017-Aug-08 04:30N 69°59' E 020°02'4 8.4
2017-Aug-08 04:00N 70°03' E 020°08'4 8.8
2017-Aug-08 03:30N 70°07' E 020°14'4 8.7
2017-Aug-08 03:01N 70°11' E 020°18'4 8.7
2017-Aug-08 02:30N 70°15' E 020°22'4 8.6
2017-Aug-08 02:01N 70°19' E 020°27'4 8.7
2017-Aug-08 01:30N 70°23' E 020°31'4 8.7
2017-Aug-08 01:00N 70°27' E 020°36'4 8.6
2017-Aug-08 00:30N 70°31' E 020°40'4 8.6
2017-Aug-08 00:00N 70°35' E 020°45'4 8.5
2017-Aug-07 23:30N 70°39' E 020°49'23 1.4
2017-Aug-07 07:00N 70°54' E 019°54'103 5.7 140 / 161008.410.8 11.2 9.811.0
2017-Aug-06 13:00N 72°36' E 019°12'0 0.0 090 / 221012.1 5.4 9.3 5.6 9.4
2017-Aug-05 13:00N 72°36' E 019°12'   070 / 201008.9 5.4 9.2 8.4 9.1

Dump ship's entire track history